Weather History for KEWB - November, 2014

Change the Weather History Date:

Saturday, November 29, 2014

  Actual Average Record
Temperature  
Mean Temperature 27 °F -  
Max Temperature 35 °F 49 °F 66 °F (2011)
Min Temperature 19 °F 36 °F 17 °F (1989)
Degree Days  
Heating Degree Days 38    
Moisture  
Dew Point 18 °F    
Average Humidity 68    
Maximum Humidity 92    
Minimum Humidity 44    
Precipitation  
Precipitation 0.00 in - - ()
Sea Level Pressure  
Sea Level Pressure 30.31 in    
Wind  
Wind Speed 3 mph (West)    
Max Wind Speed 8 mph    
Max Gust Speed -    
Visibility 10 miles    
Events      
Averages and records for this station are not official NWS values.
T = Trace of Precipitation, MM = Missing Value Source: NWS Daily Summary

Daily Weather History Graph

Daily Weather History Graph

Search for Another Location

Airport or City:

Trip Planner

Search our weather history database for the weather conditions in past years. The results will help you decide how hot, cold, wet, or windy it might be!

Date:

Astronomy

Nov. 29, 2014 Rise Set
Actual Time 6:49 AM EST 4:14 PM EST
Civil Twilight 6:18 AM EST 4:45 PM EST
Nautical Twilight 5:43 AM EST 5:20 PM EST
Astronomical Twilight 5:10 AM EST 5:53 PM EST
Moon 12:13 PM EST (11/29) No Moon Set
Length of Visible Light 10h 27m
Length of Day
9h 25m
First Quarter, 53% of the Moon is Illuminated
Nov 29
First Quarter
Dec 6
Full
Dec 14
Last Quarter
Dec 21
New
Dec 28
First Quarter

Hourly Weather History & Observations

Time (EST) Temp. Windchill Dew Point Humidity Pressure Visibility Wind Dir Wind Speed Gust Speed Precip Events Conditions
12:53 AM 25.0 °F 19.3 °F 16.0 °F 69% 30.23 in 10.0 mi WNW 4.6 mph - N/A   Clear
1:53 AM 24.1 °F 19.7 °F 16.0 °F 71% 30.25 in 10.0 mi WNW 3.5 mph - N/A   Clear
2:53 AM 23.0 °F 18.4 °F 16.0 °F 74% 30.25 in 10.0 mi Variable 3.5 mph - N/A   Clear
3:53 AM 23.0 °F 15.8 °F 16.0 °F 74% 30.27 in 10.0 mi WNW 5.8 mph - N/A   Clear
4:53 AM 21.9 °F 17.2 °F 16.0 °F 78% 30.28 in 10.0 mi WNW 3.5 mph - N/A   Clear
5:53 AM 21.0 °F - 16.0 °F 81% 30.30 in 10.0 mi Calm Calm - N/A   Clear
6:53 AM 19.9 °F - 16.0 °F 85% 30.32 in 10.0 mi Calm Calm - N/A   Clear
7:53 AM 24.1 °F 18.2 °F 18.0 °F 77% 30.33 in 10.0 mi WNW 4.6 mph - N/A   Clear
8:53 AM 27.0 °F 20.5 °F 17.1 °F 66% 30.34 in 10.0 mi WNW 5.8 mph - N/A   Clear
9:53 AM 28.9 °F 22.8 °F 14.0 °F 54% 30.35 in 10.0 mi WNW 5.8 mph - N/A   Clear
10:53 AM 30.9 °F 24.3 °F 14.0 °F 50% 30.34 in 10.0 mi West 6.9 mph - N/A   Clear
11:53 AM 32.0 °F 28.7 °F 12.9 °F 45% 30.32 in 10.0 mi South 3.5 mph - N/A   Clear
12:53 PM 34.0 °F - 14.0 °F 44% 30.31 in 10.0 mi Calm Calm - N/A   Clear
1:53 PM 35.1 °F 28.6 °F 15.1 °F 44% 30.31 in 10.0 mi West 8.1 mph - N/A   Clear
2:53 PM 33.1 °F 30.0 °F 14.0 °F 46% 30.31 in 10.0 mi West 3.5 mph - N/A   Overcast
3:53 PM 33.1 °F - 14.0 °F 46% 30.32 in 10.0 mi Calm Calm - N/A   Mostly Cloudy
4:53 PM 32.0 °F 28.7 °F 19.0 °F 59% 30.33 in 10.0 mi SSW 3.5 mph - N/A   Overcast
5:53 PM 30.9 °F 26.2 °F 19.0 °F 61% 30.33 in 10.0 mi SSE 4.6 mph - N/A   Overcast
6:53 PM 28.9 °F - 21.0 °F 72% 30.34 in 10.0 mi Calm Calm - N/A   Partly Cloudy
7:53 PM 27.0 °F - 21.0 °F 78% 30.33 in 10.0 mi Calm Calm - N/A   Clear
8:53 PM 26.1 °F - 23.0 °F 88% 30.32 in 10.0 mi Calm Calm - N/A   Overcast
9:53 PM 28.0 °F - 24.1 °F 85% 30.31 in 10.0 mi Calm Calm - N/A   Overcast
10:53 PM 28.9 °F - 26.1 °F 89% 30.30 in 10.0 mi Calm Calm - N/A   Overcast
11:53 PM 30.9 °F - 28.9 °F 92% 30.27 in 10.0 mi Calm Calm - N/A   Overcast